Location: ???????
(55.4362°N, 38.1183°E)
Time: 03:39:05
(UTC+00:00)

Cosmos 1025 Rocket - Pass Details

Date: 17 June 2021
Orbit: 593 x 619 km, 82.5° (Epoch: 26 July)

Event Time Altitude Azimuth Distance (km) Brightness Sun altitude
Exits shadow 19:45:50 - 204° (SSW) 2,909 6.1 -8.2°
Rises 19:45:54 0° 204° (SSW) 2,882 6.1 -8.2°
Reaches altitude 10° 19:48:10 10° 209° (SSW) 1,979 5.3 -8.3°
Maximum altitude 19:52:28 53° 287° (WNW) 759 3.8 -8.5°
Drops below altitude 10° 19:56:46 10° 5° (N) 1,981 6.8 -8.8°
Sets 19:59:02 0° 10° (N) 2,886 7.6 -8.9°
